{"data":{"norad_id":59634,"epoch":"2026-05-25T03:09:18.723744Z","epoch_age_seconds":77748,"freshness":"FRESH","line1":"1 59634U 24082D   26145.13146671  .00001065  00000+0  48235-4 0  9997","line2":"2 59634  43.0014  68.0258 0001114 261.5533  98.5192 15.27575685116544","mean_motion":15.27575685,"eccentricity":0.0001114,"inclination_deg":43.0014,"raan_deg":68.0258,"arg_perigee_deg":261.5533,"mean_anomaly_deg":98.5192,"bstar":4.8235e-5,"rev_number":11654,"period_min":94.267014992452,"perigee_km":482.29767916192,"apogee_km":483.82635430285,"semimajor_km":6861.1990167324,"source":"CELESTRAK","updated_at":"2026-05-25T13:38:19.013147Z"}}